Wisconsin Rapids, WI

4:11 PM CDT on April 23, 2017 (GMT -0500)
Alexander Field South Wood County

Weather History for KISW - October, 2013

Change the Weather History Date:

Saturday, October 26, 2013

  Actual Average Record
Temperature  
Mean Temperature 46 °F -  
Max Temperature 51 °F 55 °F 77 °F (1948)
Min Temperature 39 °F 34 °F 10 °F (1962)
Degree Days  
Heating Degree Days 19    
Moisture  
Dew Point 30 °F    
Average Humidity 55    
Maximum Humidity 68    
Minimum Humidity 41    
Precipitation  
Precipitation 0.00 in - - ()
Sea Level Pressure  
Sea Level Pressure 29.92 in    
Wind  
Wind Speed 12 mph (WNW)    
Max Wind Speed 18 mph    
Max Gust Speed 29 mph    
Visibility 10 miles    
Events      
Averages and records for this station are not official NWS values.
T = Trace of Precipitation, MM = Missing Value Source: NWS Daily Summary

Daily Weather History Graph

Daily Weather History Graph

Search for Another Location

Airport or City:

Trip Planner

Search our weather history database for the weather conditions in past years. The results will help you decide how hot, cold, wet, or windy it might be!

Date:

Astronomy

Oct. 26, 2013 Rise Set
Actual Time 7:28 AM CDT 5:57 PM CDT
Civil Twilight 6:59 AM CDT 6:26 PM CDT
Nautical Twilight 6:24 AM CDT 7:00 PM CDT
Astronomical Twilight 5:51 AM CDT 7:34 PM CDT
Moon No Moon Rise 1:46 PM CDT (10/26)
Length of Visible Light 11h 27m
Length of Day
10h 28m
Waning Gibbous, 53% of the Moon is Illuminated
Oct 26
Waning Gibbous
Oct 26
Last Quarter
Nov 3
New
Nov 9
First Quarter
Nov 17
Full

Hourly Weather History & Observations

Time (CDT) Temp. Windchill Dew Point Humidity Pressure Visibility Wind Dir Wind Speed Gust Speed Precip Events Conditions
12:54 AM 51.1 °F - 32.0 °F 48% 29.76 in 10.0 mi WSW 17.3 mph 24.2 mph N/A   Overcast
1:54 AM 50.0 °F - 32.0 °F 50% 29.74 in 10.0 mi WSW 9.2 mph 18.4 mph N/A   Scattered Clouds
2:54 AM 48.0 °F - 33.1 °F 56% 29.73 in 10.0 mi WSW 8.1 mph - N/A   Scattered Clouds
3:54 AM 48.0 °F - 35.1 °F 61% 29.73 in 10.0 mi West 11.5 mph 17.3 mph N/A   Mostly Cloudy
4:54 AM 46.9 °F - 36.0 °F 66% 29.75 in 10.0 mi West 11.5 mph - N/A   Scattered Clouds
5:54 AM 45.0 °F 40.6 °F 35.1 °F 68% 29.77 in 10.0 mi WNW 8.1 mph - N/A   Mostly Cloudy
6:54 AM 44.1 °F 39.0 °F 33.1 °F 65% 29.79 in 10.0 mi WNW 9.2 mph - N/A   Partly Cloudy
7:54 AM 42.1 °F 34.9 °F 30.9 °F 65% 29.83 in 10.0 mi NW 13.8 mph - N/A   Clear
8:54 AM 44.1 °F 37.7 °F 32.0 °F 63% 29.86 in 10.0 mi WNW 12.7 mph 20.7 mph N/A   Scattered Clouds
9:54 AM 45.0 °F 37.4 °F 33.1 °F 63% 29.88 in 10.0 mi NW 18.4 mph 25.3 mph N/A   Mostly Cloudy
10:54 AM 45.0 °F 38.5 °F 28.0 °F 52% 29.91 in 10.0 mi NNW 13.8 mph 28.8 mph N/A   Mostly Cloudy
11:54 AM 46.0 °F 39.0 °F 33.1 °F 61% 29.95 in 10.0 mi WNW 17.3 mph 20.7 mph N/A   Partly Cloudy
12:54 PM 48.9 °F - 28.9 °F 46% 29.96 in 10.0 mi NNW 17.3 mph 28.8 mph N/A   Scattered Clouds
1:54 PM 48.9 °F - 27.0 °F 43% 29.97 in 10.0 mi NNW 15.0 mph 26.5 mph N/A   Overcast
2:54 PM 48.9 °F - 27.0 °F 43% 29.99 in 10.0 mi NW 18.4 mph - N/A   Mostly Cloudy
3:54 PM 48.0 °F - 25.0 °F 41% 30.00 in 10.0 mi NW 17.3 mph 25.3 mph N/A   Mostly Cloudy
4:54 PM 46.0 °F 39.9 °F 26.1 °F 46% 30.02 in 10.0 mi NW 13.8 mph 21.9 mph N/A   Overcast
5:54 PM 45.0 °F 38.9 °F 26.1 °F 48% 30.04 in 10.0 mi NW 12.7 mph 18.4 mph N/A   Overcast
6:54 PM 44.1 °F 40.8 °F 27.0 °F 51% 30.06 in 10.0 mi WNW 5.8 mph - N/A   Overcast
7:54 PM 43.0 °F 38.2 °F 27.0 °F 53% 30.07 in 10.0 mi West 8.1 mph - N/A   Overcast
8:54 PM 42.1 °F 39.2 °F 28.0 °F 58% 30.06 in 10.0 mi West 4.6 mph - N/A   Overcast
9:54 PM 42.1 °F 38.4 °F 28.0 °F 58% 30.07 in 10.0 mi West 5.8 mph - N/A   Overcast
10:54 PM 41.0 °F 37.1 °F 28.0 °F 60% 30.07 in 10.0 mi WNW 5.8 mph - N/A   Overcast
11:54 PM 39.0 °F 36.8 °F 28.0 °F 65% 30.06 in 10.0 mi West 3.5 mph - N/A   Mostly Cloudy